Regional Weather Roundup
Issued by NWS Midland/Odessa, TX

Home | Current Version | Previous Version | Text Only | Print | Product List | Glossary On
Versions: 1 2 3 4 5 6 7 8 9 10 11 12 13 14 15 16 17 18 19 20 21 22 23 24 25 26 27 28 29 30 31 32 33 34 35 36 37 38 39 40 41 42 43 44 45 46 47 48 49 50
000
ASUS44 KMAF 310710
RWRMAF
MIDLAND AREA WEATHER ROUNDUP
NATIONAL WEATHER SERVICE MIDLAND TX
200 AM CDT SAT JUL 31 2021

...IN SOUTHWEST TEXAS AND SOUTHEAST NEW MEXICO...

CITY           SKY/WX    TMP DP  RH WIND       PRES   REMARKS
ALPINE         CLEAR     73  57  57 S3        30.28F
ANDREWS        FAIR      73  63  71 CALM      30.15S
ARTESIA        CLEAR     73  66  78 N6        30.18S
BIG SPRING     CLEAR     80  62  53 SE10      30.10S
CARLSBAD       PTCLDY    73  61  65 N3        30.12F
DRYDEN           N/A     81  62  52 SE9       30.10F
FORT STOCKTON  CLEAR     77  58  51 S9        30.12F
GUAD PASS      PTCLDY    72  57  59 NE13      30.29S
HOBBS          CLEAR     68  63  83 N6        30.17F
LAMESA         NOT AVBL
MARFA          PTCLDY    72  58  61 VRB3      30.27F
MIDLAND AIRPK  CLEAR     80  63  57 SE7       30.12S
MIDLAND INTL   CLEAR     77  64  64 SE8       30.11F
ODESSA         CLEAR     79  62  56 S6        30.13S
PECOS          CLEAR     81  57  43 S5        30.09S
PRESIDIO       FAIR      84  59  43 NE10G16   30.11S
SEMINOLE       CLEAR     72  62  70 CALM      30.20F
SNYDER         CLEAR     77  63  61 SE9       30.11F
WINK           CLEAR     80  58  46 SE8       30.09F
$$
...OTHER STATIONS IN TEXAS...

CITY           SKY/WX    TMP DP  RH WIND       PRES   REMARKS
ABILENE        CLEAR     79  66  64 S7        30.08F
AMARILLO       CLEAR     73  61  65 S10       30.15F
AUSTIN         PTCLDY    77  74  90 SW7       30.04F
BROWNSVILLE    CLEAR     78  74  87 S6        30.03F
CORPUS CHRISTI PTCLDY    79  78  97 S5        30.03S
DALLAS FTW     PTCLDY    85  73  67 S8        30.01F
DEL RIO        CLEAR     86  68  54 E6        30.02S
EL PASO        MOCLDY    80  53  39 NW5       30.17S
HOUSTON INT    MOCLDY    78  74  87 CALM      30.04S
LUBBOCK        CLEAR     75  63  66 CALM      30.16S
SAN ANGELO     CLEAR     79  63  57 S5        30.08F
SAN ANTONIO    PTCLDY    80  74  81 SE8       30.06S
WACO           CLEAR     83  74  74 S10       30.03F
WICHITA FALLS  CLEAR     77  71  82 S7        30.02S
$$
...OTHER LOCATIONS IN NEW MEXICO...

CITY           SKY/WX    TMP DP  RH WIND       PRES   REMARKS
ALAMOGORDO     PTCLDY    72  52  49 SE10      30.20R
ALBUQUERQUE    PTCLDY    75  47  36 SE5       30.28R
CANNON AFB     CLEAR     67  62  83 E7        30.22F
CLOVIS         CLEAR     68  62  81 S8        30.23F
HOLLOMAN AFB   NOT AVBL
ROSWELL        CLEAR     74  62  66 CALM      30.17S
RUIDOSO        CLOUDY    64  50  59 SW5       30.41F
SANTA FE       CLEAR     61  50  67 N6        30.35S
TRUTH OR CONSE CLEAR     76  51  41 SW7       30.23R
TUCUMCARI      CLEAR     77  58  51 S12       30.16S
$$



USA.gov is the U.S. government's official web portal to all federal, state and local government web resources and services.